CAW109 FAOR-FACT

Flight info

Callsign CAW109
Flight time N/A
Altitude 36000
Route RAGUL1D RAGUL UQ10 DUMDO UZ26 ERDAS ERDAS1B
Aircraft B738/M-SDE2E3FGHIRWXY/LB1

Departure

Time N/A
Airport O.R. Tambo International Airport (FAOR)

Arrival

Time 2026-05-07 17:24
Airport Cape Town International Airport (FACT)
Time Latitude Longitude Altitude Speed Heading
2026-05-07 17:00 -33.27810 19.37854 18141 ft 338 kts 228°
2026-05-07 17:00 -33.29303 19.35758 17878 ft 332 kts 228°
2026-05-07 17:01 -33.30816 19.33635 17626 ft 335 kts 228°
2026-05-07 17:01 -33.32210 19.31675 17404 ft 336 kts 228°
2026-05-07 17:01 -33.33717 19.29552 17145 ft 334 kts 227°
2026-05-07 17:01 -33.35209 19.27447 16890 ft 330 kts 227°
2026-05-07 17:02 -33.36689 19.25358 16630 ft 328 kts 227°
2026-05-07 17:02 -33.38156 19.23288 16385 ft 326 kts 227°
2026-05-07 17:02 -33.39619 19.21221 16131 ft 324 kts 227°
2026-05-07 17:02 -33.41072 19.19167 15884 ft 323 kts 227°
2026-05-07 17:03 -33.42495 19.17108 15640 ft 321 kts 228°
2026-05-07 17:03 -33.43885 19.15028 15396 ft 320 kts 228°
2026-05-07 17:03 -33.45431 19.13134 15151 ft 316 kts 219°
2026-05-07 17:03 -33.47099 19.11435 14917 ft 314 kts 217°
2026-05-07 17:04 -33.48771 19.09772 14635 ft 314 kts 217°
2026-05-07 17:04 -33.50457 19.08098 14147 ft 314 kts 217°
2026-05-07 17:04 -33.52124 19.06430 13645 ft 310 kts 217°
2026-05-07 17:04 -33.53813 19.04730 13096 ft 306 kts 217°
2026-05-07 17:05 -33.55429 19.03095 12572 ft 301 kts 217°
2026-05-07 17:05 -33.57020 19.01481 12068 ft 298 kts 217°
2026-05-07 17:05 -33.58600 18.99875 11575 ft 297 kts 217°
2026-05-07 17:05 -33.60172 18.98274 11083 ft 296 kts 217°
2026-05-07 17:06 -33.61736 18.96679 10600 ft 295 kts 217°
2026-05-07 17:06 -33.63299 18.95085 10166 ft 293 kts 217°
2026-05-07 17:06 -33.64819 18.93531 9919 ft 282 kts 217°
2026-05-07 17:06 -33.66280 18.92035 9637 ft 271 kts 217°
2026-05-07 17:07 -33.67689 18.90592 9359 ft 261 kts 217°
2026-05-07 17:07 -33.69055 18.89193 9097 ft 256 kts 217°
2026-05-07 17:07 -33.70405 18.87813 8836 ft 254 kts 216°
2026-05-07 17:07 -33.71750 18.86437 8590 ft 255 kts 217°
2026-05-07 17:08 -33.73110 18.85048 8346 ft 259 kts 217°
2026-05-07 17:08 -33.74486 18.83641 8113 ft 270 kts 217°
2026-05-07 17:08 -33.75932 18.82161 7870 ft 273 kts 217°
2026-05-07 17:08 -33.77383 18.80670 7608 ft 268 kts 217°
2026-05-07 17:09 -33.78772 18.79241 7343 ft 258 kts 217°
2026-05-07 17:09 -33.80115 18.77859 7087 ft 251 kts 216°
2026-05-07 17:09 -33.81432 18.76506 6833 ft 248 kts 216°
2026-05-07 17:09 -33.82745 18.75158 6604 ft 248 kts 216°
2026-05-07 17:10 -33.84056 18.73811 6354 ft 248 kts 216°
2026-05-07 17:10 -33.85369 18.72461 6090 ft 248 kts 216°
2026-05-07 17:10 -33.86666 18.71127 5843 ft 248 kts 216°
2026-05-07 17:10 -33.87977 18.69778 5596 ft 249 kts 216°
2026-05-07 17:11 -33.89297 18.68419 5345 ft 249 kts 216°
2026-05-07 17:11 -33.90605 18.67071 5086 ft 245 kts 216°
2026-05-07 17:11 -33.91880 18.65755 4828 ft 237 kts 216°
2026-05-07 17:11 -33.93031 18.64409 4749 ft 229 kts 231°
2026-05-07 17:12 -33.93545 18.62613 4727 ft 231 kts 262°
2026-05-07 17:12 -33.93252 18.60709 4715 ft 237 kts 293°
2026-05-07 17:12 -33.92198 18.59180 4739 ft 239 kts 326°
2026-05-07 17:12 -33.90720 18.58397 4769 ft 228 kts 343°
2026-05-07 17:13 -33.89227 18.57833 4749 ft 222 kts 344°
2026-05-07 17:13 -33.87762 18.57290 4755 ft 217 kts 344°
2026-05-07 17:13 -33.86368 18.56781 4743 ft 207 kts 344°
2026-05-07 17:13 -33.85005 18.56287 4746 ft 203 kts 345°
2026-05-07 17:14 -33.83653 18.55797 4736 ft 203 kts 345°
2026-05-07 17:14 -33.82299 18.55308 4741 ft 204 kts 346°
2026-05-07 17:14 -33.80919 18.54922 4724 ft 203 kts 353°
2026-05-07 17:14 -33.79564 18.55110 4695 ft 193 kts 31°
2026-05-07 17:15 -33.78407 18.55855 4724 ft 188 kts 35°
2026-05-07 17:15 -33.77286 18.56660 4720 ft 189 kts 37°
2026-05-07 17:15 -33.76168 18.57498 4724 ft 189 kts 37°
2026-05-07 17:15 -33.75055 18.58339 4728 ft 189 kts 38°
2026-05-07 17:16 -33.73940 18.59180 4733 ft 190 kts 38°
2026-05-07 17:16 -33.72698 18.59799 4671 ft 202 kts
2026-05-07 17:16 -33.71349 18.59425 4670 ft 202 kts 327°
2026-05-07 17:16 -33.70468 18.58177 4654 ft 196 kts 285°
2026-05-07 17:17 -33.70411 18.56639 4648 ft 183 kts 244°
2026-05-07 17:17 -33.71147 18.55501 4655 ft 167 kts 202°
2026-05-07 17:17 -33.72138 18.54845 4683 ft 167 kts 208°
2026-05-07 17:17 -33.73117 18.54074 4668 ft 171 kts 207°
2026-05-07 17:18 -33.74212 18.53580 4553 ft 167 kts 173°
2026-05-07 17:18 -33.75328 18.53831 4509 ft 161 kts 168°
2026-05-07 17:18 -33.76403 18.53998 4347 ft 151 kts 169°
2026-05-07 17:18 -33.77423 18.54194 4135 ft 147 kts 166°
2026-05-07 17:19 -33.78416 18.54458 3958 ft 144 kts 165°
2026-05-07 17:19 -33.79362 18.54739 3742 ft 137 kts 163°
2026-05-07 17:19 -33.80278 18.55023 3546 ft 135 kts 163°
2026-05-07 17:19 -33.81196 18.55312 3357 ft 137 kts 163°
2026-05-07 17:20 -33.82113 18.55602 3155 ft 135 kts 162°
2026-05-07 17:20 -33.83026 18.55892 2969 ft 136 kts 162°
2026-05-07 17:20 -33.83942 18.56183 2794 ft 136 kts 162°
2026-05-07 17:20 -33.84831 18.56464 2619 ft 126 kts 162°
2026-05-07 17:21 -33.85678 18.56733 2418 ft 127 kts 162°
2026-05-07 17:21 -33.86535 18.57006 2225 ft 128 kts 163°
2026-05-07 17:21 -33.87391 18.57277 2050 ft 128 kts 163°
2026-05-07 17:21 -33.88248 18.57549 1864 ft 127 kts 163°
2026-05-07 17:22 -33.89112 18.57824 1685 ft 129 kts 163°
2026-05-07 17:22 -33.89998 18.58105 1494 ft 131 kts 164°
2026-05-07 17:22 -33.90862 18.58379 1312 ft 130 kts 164°
2026-05-07 17:22 -33.91733 18.58655 1120 ft 130 kts 164°
2026-05-07 17:23 -33.92604 18.58931 964 ft 130 kts 163°
2026-05-07 17:23 -33.93501 18.59218 794 ft 134 kts 165°
2026-05-07 17:23 -33.94393 18.59486 580 ft 131 kts 165°
2026-05-07 17:23 -33.95248 18.59769 370 ft 126 kts 167°
2026-05-07 17:24 -33.96080 18.60032 177 ft 123 kts 166°
2026-05-07 17:24 -33.96800 18.60261 157 ft 79 kts 165°
2026-05-07 17:24 -33.97081 18.60346 155 ft 12 kts 176°
2026-05-07 17:24 -33.97111 18.60282 154 ft 10 kts 277°
2026-05-07 17:25 -33.97099 18.60223 154 ft 5 kts 287°
2026-05-07 17:25 -33.97070 18.60103 154 ft 21 kts 285°
2026-05-07 17:25 -33.97042 18.59985 154 ft 7 kts 294°
2026-05-07 17:25 -33.97019 18.59939 154 ft 6 kts 297°
2026-05-07 17:26 -33.97021 18.59886 154 ft 6 kts 256°
2026-05-07 17:26 -33.97028 18.59847 154 ft 0 kts 255°